Wind_Speed
33 34 34 34 36 37 40 39 38 37 37 37 38 39 39 40 41 41 40 39 39 39 40 40 40 40 40 40 41 41 42 43 43 44 44 44 43 44 44 44 43 43 43 43
31 32 33 33 33 35 36 38 37 37 36 35 36 37 38 39 39 40 40 40 40 40 40 40 40 40 39 40 40 40 41 42 42 42 42 42 43 43 43 43 42 43 43 43
30 31 33 34 32 33 34 35 35 36 35 34 35 35 36 37 38 38 38 38 39 39 40 40 40 40 40 40 39 39 40 41 41 41 41 41 42 43 42 42 42 42 43 43
28 30 32 32 33 33 33 33 35 36 35 34 35 35 36 36 37 37 37 37 38 38 38 39 39 40 40 40 40 39 40 40 40 40 40 42 42 42 43 42 42 43 43 42
26 27 29 30 31 32 32 31 33 34 35 34 34 35 35 35 36 37 37 37 37 38 38 38 38 39 39 40 40 40 40 40 40 40 41 42 42 42 42 42 42 42 42 42
25 26 27 27 28 29 31 31 30 31 33 33 33 33 34 35 36 36 37 38 38 37 37 37 37 38 39 39 39 40 40 40 40 40 40 41 41 41 41 41 41 41 41 41
23 25 26 26 27 27 29 29 29 31 31 32 33 34 34 34 35 36 37 38 38 38 38 37 37 37 38 38 38 39 39 39 39 39 39 39 39 39 40 40 41 40 40 40
23 24 24 25 27 28 28 28 29 30 31 31 31 32 33 33 34 35 36 36 37 37 37 37 37 37 37 37 37 38 38 38 39 39 38 38 38 39 39 39 39 39 39 38
22 22 22 23 25 27 28 28 28 29 30 30 30 30 31 32 33 34 35 36 36 36 36 36 36 37 37 37 37 37 38 38 38 38 38 38 38 37 37 37 37 37 36 36
21 21 22 22 23 24 25 26 27 28 29 30 30 30 31 32 32 33 34 34 34 34 35 35 35 35 36 36 36 37 37 37 37 37 36 36 36 36 36 36 36 35 35 35
20 20 21 21 22 23 24 25 27 27 28 29 29 30 31 31 31 32 32 33 33 34 34 35 35 35 35 36 36 36 36 35 35 35 35 35 35 35 35 35 34 34 34 34
19 20 21 21 22 22 23 24 25 27 28 28 29 30 30 31 31 31 32 32 33 33 34 34 35 35 35 35 35 35 34 34 34 34 34 34 34 34 34 33 33 32 32 32
18 18 19 20 21 21 23 23 24 25 26 26 27 28 29 29 30 30 31 31 31 32 32 33 33 34 34 35 35 35 34 34 33 33 33 33 32 32 32 32 32 31 31 30
18 19 19 19 20 20 21 22 23 24 24 25 26 27 28 28 29 29 30 30 30 31 31 31 32 32 33 33 33 33 33 33 33 32 32 32 31 31 31 30 29 29 29 29
17 18 19 19 20 20 20 21 22 23 24 24 25 26 26 27 28 29 29 30 30 31 31 31 31 31 31 31 31 32 32 33 33 32 32 31 30 30 29 29 29 28 28 29
17 18 18 19 19 20 20 21 21 23 24 25 25 26 26 26 27 28 29 30 30 30 30 31 31 30 30 30 30 30 30 30 31 30 30 29 29 28 28 28 28 28 28 29
16 17 18 19 20 21 21 22 22 23 24 25 26 26 26 26 26 27 28 29 29 29 29 29 28 28 28 29 29 29 29 29 28 28 28 28 27 27 27 26 26 27 27 28
15 16 17 18 19 20 21 22 23 23 24 24 25 25 25 25 25 26 26 27 27 27 27 27 27 27 27 27 27 27 27 27 26 26 26 26 26 26 25 25 25 25 25 25
14 15 16 16 17 18 20 21 21 22 22 23 23 23 23 23 23 24 25 25 26 26 26 26 26 25 26 26 26 25 25 25 25 24 24 24 24 24 23 23 22 22 22 22
14 14 15 15 16 17 17 18 19 19 20 20 21 21 21 21 22 22 23 24 24 24 24 24 24 24 24 24 24 24 24 24 23 23 22 22 22 21 21 20 19 19 19 19
13 14 14 15 15 16 16 17 17 17 18 18 19 20 20 21 21 22 22 22 23 23 22 22 22 22 22 23 23 23 22 22 22 21 20 20 19 19 19 18 18 17 17 16
13 14 14 14 15 15 15 15 15 16 17 18 18 19 19 20 20 20 20 20 21 21 21 21 21 21 21 21 21 21 20 20 19 19 18 18 17 17 17 17 17 17 16 16
13 13 12 12 13 13 13 14 14 15 16 16 17 17 17 18 18 18 18 18 18 19 19 19 19 19 18 18 18 17 17 17 17 16 16 16 15 15 15 15 15 15 15 14
12 11 11 11 11 11 12 12 12 13 13 13 13 14 14 15 15 15 16 16 17 17 17 17 17 16 15 15 15 14 14 14 14 14 14 14 14 14 14 14 14 14 13 13
11 11 12 11 11 11 11 11 11 11 11 11 11 11 12 12 13 13 14 14 14 14 14 14 14 13 13 13 13 12 12 12 12 12 13 12 12 12 11 11 11 11 10 10
11 11 11 11 11 11 11 11 10 10 11 11 10 10 11 11 12 12 12 12 12 11 11 11 11 11 11 11 11 11 11 10 10 10 10 10 10 10 9 9 8 8 7 7
11 11 11 11 11 10 10 10 10 10 9 10 10 10 10 10 10 10 10 9 9 9 9 10 9 9 9 9 9 9 9 9 9 9 8 9 9 8 7 6 6 6 6 6
Wind_Direction
234 234 234 235 234 235 236 236 239 239 240 240 241 243 244 245 245 245 246 247 248 250 251 253 255 256 257 258 259 260 261 263 264 265 266 266 267 268 270 271 271 271 272 273
234 234 235 234 234 234 235 236 238 238 237 238 240 240 241 242 244 244 245 247 248 249 251 253 255 256 256 258 259 261 262 263 264 265 265 266 267 268 270 270 270 271 272 274
234 233 235 235 234 235 235 235 236 237 236 238 238 238 240 242 243 244 244 246 247 247 249 251 253 255 256 258 259 261 262 263 264 265 265 266 268 269 270 270 271 272 274 275
234 232 236 236 235 236 236 235 235 235 235 237 238 240 241 242 243 243 243 244 245 246 249 251 253 255 257 258 259 261 263 263 264 264 265 267 268 269 270 271 273 274 275 276
232 235 237 236 235 236 237 236 235 235 236 237 237 240 240 241 242 243 243 244 245 246 249 251 253 255 257 258 260 262 263 263 263 264 266 267 267 268 270 272 273 274 275 276
231 234 235 234 235 235 236 236 235 235 235 236 237 240 241 242 242 242 243 245 247 249 250 252 253 255 257 258 260 261 263 263 264 265 266 267 267 268 270 271 273 274 274 275
233 235 237 237 236 235 236 236 236 237 237 238 239 242 243 244 245 245 247 247 248 250 252 253 255 256 258 259 260 262 263 263 265 266 267 267 267 268 269 271 273 273 274 274
235 238 238 238 238 237 238 237 238 239 240 241 242 243 245 247 248 249 251 252 252 253 254 255 256 258 259 260 261 261 262 263 265 266 266 266 267 268 269 271 271 272 273 273
235 237 237 237 239 239 238 239 239 240 241 243 244 245 245 247 248 250 252 253 254 255 256 256 258 260 261 261 261 262 263 264 265 266 266 266 267 268 269 270 271 271 271 272
237 237 238 240 241 241 241 241 241 241 242 243 246 247 248 249 250 251 251 253 254 256 257 259 259 260 260 260 261 262 263 264 265 266 266 266 267 268 270 272 272 273 273 274
237 239 241 243 244 244 245 245 245 243 242 244 246 247 249 250 251 251 252 253 254 256 258 260 260 261 260 260 261 262 263 264 264 265 265 267 267 269 271 272 273 273 275 276
240 241 243 246 247 247 248 248 247 246 245 247 248 248 248 250 251 252 253 255 256 257 258 259 260 260 261 261 261 262 263 263 264 265 265 267 268 268 270 272 273 273 275 276
243 243 246 250 252 251 250 248 247 246 248 250 250 249 249 250 252 253 254 254 255 256 257 257 258 259 260 260 260 261 261 262 263 264 265 267 269 269 270 272 273 273 274 275
247 248 251 253 254 253 251 248 247 248 250 251 251 251 251 251 252 252 252 254 255 257 258 258 259 260 261 261 260 261 261 262 263 264 265 266 267 267 269 270 270 272 273 274
249 252 253 254 254 253 251 249 249 250 252 253 253 254 254 254 253 254 255 256 257 258 260 261 261 262 263 262 261 261 261 262 263 264 266 266 267 266 266 267 268 270 272 274
251 252 253 253 253 252 251 250 251 252 253 254 255 256 256 256 256 256 256 257 258 259 261 262 263 263 262 262 261 261 261 262 263 263 264 264 265 266 266 267 269 270 272 273
255 255 254 254 253 253 253 254 256 256 256 256 257 257 258 258 258 257 257 257 258 259 260 262 263 262 262 262 262 262 262 263 262 261 261 261 264 264 265 267 270 271 273 273
260 260 258 257 256 256 257 257 258 259 260 259 259 259 259 258 257 257 257 258 259 260 260 261 261 262 263 262 261 261 261 261 261 260 260 260 262 263 263 267 271 273 274 274
264 265 264 262 261 261 260 259 260 261 261 261 261 260 259 258 257 257 257 258 258 259 260 262 263 263 262 260 259 258 259 259 259 259 259 259 261 263 264 268 272 273 274 274
266 268 268 269 269 268 265 263 263 262 261 261 260 259 258 257 258 258 259 258 258 259 261 262 262 263 261 258 257 256 257 257 257 257 258 259 260 260 261 265 269 272 274 274
268 271 273 274 273 272 269 267 265 264 261 261 260 259 259 258 259 259 260 259 259 260 261 262 261 261 259 257 255 254 254 254 255 256 256 256 257 258 260 263 266 270 271 271
275 275 276 275 275 274 272 270 268 266 264 263 262 260 259 259 260 261 260 259 258 259 260 260 259 258 257 256 255 253 252 252 253 253 252 253 255 256 257 260 264 267 267 267
276 278 278 278 276 274 274 274 272 269 267 264 263 261 260 261 261 261 261 261 260 260 259 258 258 256 254 254 253 250 249 249 248 247 248 250 252 253 255 258 261 263 266 266
277 277 279 280 279 278 277 278 276 273 270 268 264 262 261 261 260 260 262 263 262 261 258 256 253 249 247 246 246 244 244 244 243 244 244 247 249 250 251 254 258 262 263 263
278 277 278 279 279 279 280 281 281 278 276 274 271 268 264 262 262 263 264 265 262 258 253 249 243 240 240 240 239 239 239 239 240 241 243 243 243 243 247 252 257 259 259 257
280 279 277 275 277 279 280 281 281 281 278 275 273 271 269 268 265 263 263 263 258 250 241 233 228 228 230 231 232 233 232 232 235 236 235 234 233 236 241 245 247 252 252 246
279 279 278 276 276 278 278 279 280 280 276 273 272 272 272 270 267 262 257 251 245 235 225 218 215 219 221 221 223 223 222 221 223 224 223 224 224 225 228 235 242 245 237 226
Height
5528 5533 5537 5540 5545 5548 5552 5556 5560 5566 5570 5574 5577 5581 5584 5588 5591 5595 5599 5602 5605 5608 5610 5613 5614 5616 5618 5619 5619 5620 5620 5621 5621 5620 5620 5619 5619 5618 5617 5616 5616 5615 5614 5613
5520 5524 5528 5531 5535 5539 5543 5547 5551 5555 5560 5564 5567 5571 5574 5578 5581 5585 5588 5591 5594 5597 5599 5602 5604 5605 5607 5608 5609 5609 5610 5610 5610 5610 5609 5609 5608 5608 5607 5606 5605 5605 5604 5603
5513 5516 5519 5524 5528 5532 5536 5540 5543 5547 5553 5555 5558 5561 5565 5568 5571 5575 5578 5581 5583 5586 5588 5591 5593 5595 5596 5597 5598 5598 5599 5599 5599 5599 5599 5599 5598 5597 5596 5596 5595 5594 5593 5592
5505 5509 5513 5519 5520 5524 5527 5531 5535 5539 5543 5546 5550 5552 5556 5559 5562 5565 5568 5570 5573 5575 5578 5580 5582 5584 5585 5586 5587 5588 5588 5588 5588 5588 5588 5588 5587 5587 5586 5585 5584 5583 5582 5581
5499 5502 5505 5510 5513 5516 5520 5524 5527 5531 5534 5537 5540 5543 5547 5550 5553 5555 5558 5560 5563 5565 5567 5569 5571 5573 5574 5575 5576 5577 5577 5578 5578 5578 5578 5577 5576 5576 5575 5574 5574 5572 5571 5570
5493 5496 5499 5504 5506 5509 5513 5516 5519 5523 5526 5529 5532 5535 5538 5541 5543 5546 5548 5550 5553 5555 5557 5559 5561 5562 5563 5565 5565 5566 5567 5567 5567 5567 5567 5566 5566 5565 5564 5563 5563 5561 5560 5559
5487 5489 5492 5496 5499 5502 5507 5510 5512 5515 5518 5521 5524 5527 5529 5531 5534 5536 5538 5541 5543 5545 5547 5549 5550 5552 5553 5554 5555 5555 5556 5556 5556 5556 5556 5555 5555 5554 5554 5553 5552 5551 5550 5548
5481 5484 5489 5490 5492 5496 5498 5501 5504 5506 5509 5512 5515 5517 5520 5522 5524 5526 5528 5531 5533 5535 5537 5538 5540 5541 5542 5543 5544 5544 5545 5545 5545 5545 5545 5545 5545 5544 5543 5542 5541 5540 5539 5538
5477 5481 5482 5483 5485 5488 5490 5493 5496 5498 5501 5504 5506 5509 5511 5513 5515 5517 5519 5521 5523 5525 5526 5528 5529 5530 5531 5532 5533 5534 5534 5534 5534 5534 5534 5534 5534 5533 5533 5532 5531 5530 5529 5528
5471 5474 5475 5477 5479 5481 5483 5486 5488 5490 5493 5495 5498 5500 5502 5504 5506 5508 5510 5512 5513 5515 5516 5517 5518 5520 5521 5522 5522 5523 5523 5523 5523 5524 5523 5523 5523 5523 5522 5522 5521 5520 5519 5519
5466 5468 5470 5472 5473 5475 5477 5478 5480 5482 5485 5487 5489 5491 5493 5495 5497 5499 5501 5502 5504 5505 5506 5507 5508 5509 5510 5511 5512 5512 5513 5513 5513 5513 5513 5514 5513 5513 5513 5512 5511 5511 5510 5509
5461 5462 5464 5466 5467 5468 5470 5471 5473 5475 5477 5479 5481 5482 5484 5486 5488 5490 5491 5492 5494 5495 5496 5497 5498 5499 5499 5500 5501 5502 5503 5503 5503 5504 5504 5504 5504 5504 5503 5502 5502 5501 5500 5499
5455 5456 5458 5459 5460 5461 5462 5464 5465 5467 5469 5471 5472 5474 5475 5477 5479 5480 5482 5483 5484 5485 5486 5487 5488 5488 5489 5490 5491 5492 5493 5493 5494 5494 5494 5494 5494 5494 5494 5494 5492 5492 5491 5490
5450 5451 5452 5453 5454 5455 5456 5457 5458 5460 5461 5463 5464 5465 5467 5468 5470 5471 5473 5474 5475 5476 5477 5478 5478 5479 5479 5480 5481 5482 5482 5483 5484 5484 5485 5485 5485 5485 5484 5484 5484 5483 5482 5481
5444 5445 5446 5446 5447 5448 5449 5451 5452 5453 5454 5455 5456 5458 5459 5460 5461 5462 5463 5464 5466 5467 5468 5468 5469 5470 5470 5471 5471 5472 5473 5474 5474 5475 5475 5475 5475 5475 5475 5475 5475 5475 5474 5473
5439 5439 5440 5440 5441 5442 5443 5444 5445 5446 5447 5448 5449 5450 5450 5451 5453 5454 5455 5456 5457 5458 5459 5459 5460 5460 5461 5461 5462 5462 5463 5464 5464 5465 5466 5466 5466 5466 5466 5467 5467 5466 5466 5465
5433 5434 5434 5435 5435 5436 5436 5437 5438 5438 5439 5440 5441 5441 5442 5443 5444 5445 5446 5447 5448 5449 5450 5450 5450 5451 5451 5452 5453 5453 5454 5454 5455 5456 5456 5457 5457 5458 5458 5458 5458 5458 5457 5456
5428 5428 5428 5428 5429 5429 5430 5430 5430 5431 5431 5432 5432 5433 5434 5434 5435 5437 5437 5438 5439 5440 5440 5441 5441 5442 5442 5443 5443 5444 5445 5445 5446 5447 5448 5448 5449 5449 5450 5450 5450 5449 5448 5447
5423 5423 5422 5422 5422 5422 5422 5423 5423 5423 5423 5424 5425 5425 5425 5426 5427 5428 5429 5429 5430 5431 5432 5432 5432 5433 5433 5433 5434 5435 5436 5437 5438 5438 5439 5440 5441 5441 5442 5442 5442 5441 5441 5440
5418 5417 5417 5417 5417 5416 5416 5416 5416 5416 5416 5417 5417 5418 5418 5419 5419 5420 5420 5421 5422 5423 5423 5424 5424 5424 5425 5425 5426 5427 5428 5429 5430 5431 5432 5432 5433 5434 5435 5435 5435 5435 5434 5433
5413 5413 5412 5412 5411 5411 5410 5410 5410 5410 5410 5410 5411 5411 5411 5412 5412 5412 5413 5414 5414 5414 5415 5416 5416 5416 5417 5418 5419 5420 5421 5421 5422 5423 5424 5425 5426 5427 5428 5428 5429 5428 5428 5428
5408 5408 5407 5406 5406 5405 5405 5404 5404 5404 5404 5404 5404 5404 5405 5405 5405 5406 5406 5406 5407 5407 5408 5408 5409 5409 5410 5411 5412 5413 5413 5414 5415 5417 5418 5419 5420 5421 5422 5422 5423 5423 5423 5422
5404 5403 5402 5402 5401 5400 5400 5400 5399 5399 5398 5398 5398 5398 5398 5399 5399 5399 5400 5400 5400 5400 5401 5401 5402 5403 5403 5404 5405 5406 5407 5408 5409 5411 5412 5413 5414 5415 5416 5417 5417 5417 5417 5417
5399 5399 5398 5398 5397 5396 5396 5395 5394 5394 5393 5393 5393 5393 5393 5393 5393 5393 5393 5393 5394 5394 5394 5395 5396 5397 5397 5398 5399 5400 5401 5403 5404 5405 5407 5408 5409 5410 5411 5411 5412 5412 5412 5412
5395 5394 5394 5393 5393 5392 5392 5391 5390 5390 5389 5389 5388 5388 5388 5388 5388 5388 5388 5388 5388 5388 5389 5389 5390 5391 5393 5394 5395 5396 5397 5398 5399 5400 5402 5403 5404 5405 5406 5407 5407 5407 5408 5408
5391 5390 5389 5389 5389 5388 5388 5387 5386 5386 5385 5385 5385 5384 5384 5384 5383 5383 5383 5383 5383 5384 5384 5385 5386 5388 5389 5390 5391 5392 5393 5394 5395 5397 5398 5399 5400 5402 5403 5403 5404 5404 5405 5405
5387 5386 5385 5385 5385 5384 5384 5383 5383 5382 5382 5381 5381 5380 5380 5380 5379 5379 5380 5380 5380 5380 5381 5382 5384 5385 5386 5387 5388 5389 5390 5391 5393 5394 5395 5396 5398 5399 5400 5400 5401 5402 5402 5403